Cloud_Cover
3 5 5 11 90 59 58 100 100 74 16 100 100 100 100 37 5 5 0 0 0 0 0 5 51 100 100 99 93 100 100 100 64 9 100 100 100 100 100 100 68 4 38 1
1 5 5 5 82 95 84 100 100 52 52 100 100 100 100 60 98 24 51 12 5 1 1 100 100 100 9 91 88 100 77 100 100 7 70 100 100 92 38 100 100 95 91 1
5 5 5 5 98 79 98 100 100 100 100 81 100 100 100 87 89 16 100 97 100 80 84 60 10 5 8 97 100 76 67 100 100 20 70 99 100 82 100 100 99 93 5 7
5 5 5 12 65 82 100 100 100 93 91 100 84 82 96 85 92 68 99 100 100 23 75 78 100 6 5 33 91 80 71 46 94 84 96 99 100 43 97 100 48 89 9 4
46 33 5 75 22 92 100 100 100 98 89 50 100 44 26 98 74 87 12 100 34 85 100 100 66 4 3 40 90 52 73 100 51 71 5 54 100 87 100 100 100 67 5 4
5 12 51 97 82 93 100 100 100 96 33 38 100 87 5 7 60 90 97 100 100 100 48 4 18 79 82 100 100 16 52 84 100 100 4 10 92 95 100 88 5 12 28 27
5 22 100 100 100 25 99 100 100 100 94 91 8 16 86 80 5 65 100 100 100 7 2 99 100 100 100 95 4 92 94 100 100 100 100 100 14 22 100 100 87 43 5 100
5 99 100 100 100 87 60 100 100 100 100 39 49 92 28 86 100 100 97 67 29 82 100 100 100 22 42 18 22 45 100 97 100 100 100 97 82 2 1 7 5 5 34 100
65 100 100 100 100 100 100 100 99 100 100 64 5 89 100 99 87 49 5 99 100 100 100 100 100 100 98 19 7 1 5 71 100 100 100 100 2 0 15 90 53 5 4 97
100 100 100 100 100 100 100 100 100 100 100 16 95 80 73 100 100 98 99 71 100 100 99 100 100 75 4 28 82 5 60 68 85 100 100 89 28 9 100 100 30 4 0 40
100 100 100 58 92 100 100 100 100 100 100 95 87 100 100 100 100 100 63 100 100 100 100 39 100 19 92 96 25 9 99 91 82 100 100 79 98 100 100 16 38 3 28 72
100 88 74 99 100 100 100 100 100 100 100 100 100 100 100 100 100 100 100 100 100 100 98 10 42 97 29 100 66 44 86 98 16 92 100 28 98 100 100 100 100 53 100 90
100 72 60 95 96 9 97 100 100 100 100 100 100 100 100 100 100 100 100 100 100 100 100 60 54 99 48 60 8 90 84 61 97 100 18 16 99 100 80 90 75 34 9 73
80 94 84 8 21 35 100 100 100 100 100 100 100 100 100 100 100 99 100 100 100 100 100 100 81 46 98 25 38 100 33 82 45 54 100 100 100 100 99 100 100 94 46 100
100 100 46 44 98 100 100 100 100 100 100 100 100 100 100 100 100 100 100 100 100 100 100 98 98 100 100 96 93 15 100 100 100 100 100 100 100 100 100 100 100 100 100 100
100 100 53 100 100 100 100 100 100 100 100 100 100 100 100 100 94 100 100 100 100 100 100 85 15 25 100 94 46 24 23 100 100 100 100 86 95 100 100 82 100 100 100 100
100 100 97 18 99 97 91 78 87 100 89 84 100 82 100 100 100 100 100 100 100 100 100 100 92 100 100 48 53 46 100 100 100 100 100 100 100 100 100 100 100 100 100 100
100 100 100 100 100 100 100 100 100 100 100 100 100 99 100 100 100 100 100 100 100 100 100 100 100 100 93 87 30 100 100 100 100 100 100 100 100 100 100 100 100 100 100 100
100 100 100 100 100 100 100 100 100 100 94 100 95 94 100 100 100 100 100 100 100 100 100 100 100 89 100 55 29 100 100 100 100 100 100 100 100 100 100 100 100 100 100 100
100 100 100 100 100 100 100 100 100 100 100 100 100 100 83 98 100 100 100 100 100 100 100 100 100 16 4 74 98 100 100 100 100 100 100 100 100 100 100 100 100 100 100 100
100 100 100 100 100 100 100 100 100 98 98 100 100 100 100 99 99 100 100 100 100 100 100 100 82 17 27 72 95 100 100 100 100 100 100 100 100 100 100 100 100 100 100 100
100 100 100 100 100 100 100 100 99 99 89 100 100 100 100 100 100 97 93 94 95 99 97 97 70 11 26 5 23 100 100 100 100 100 100 100 100 100 100 100 100 100 100 100
100 100 100 100 100 100 100 100 100 100 100 99 100 100 100 100 100 100 100 100 91 96 99 56 8 60 90 48 76 100 100 100 100 100 100 100 100 100 100 100 100 100 100 100
100 100 100 100 100 100 100 100 100 100 100 100 100 90 97 100 100 99 99 81 65 100 100 49 94 97 100 29 100 96 100 100 100 100 100 100 100 100 100 100 100 100 100 100
100 100 100 98 94 92 100 100 100 100 100 100 98 95 66 99 100 100 91 84 98 100 99 98 72 100 100 100 100 100 100 100 100 100 100 100 100 100 100 100 100 100 100 100
100 85 86 100 100 100 100 100 100 100 100 93 95 100 92 100 86 99 92 99 92 100 98 100 100 100 100 100 100 100 100 100 100 100 100 100 100 100 100 100 100 100 100 100
97 94 88 98 100 100 100 100 100 100 100 100 92 85 98 97 100 100 97 99 100 100 99 100 99 100 100 100 100 100 100 100 100 100 100 100 100 100 100 100 100 100 100 100